CZ-3B R/B, 63362

Orbit data source: Space-Track

CZ-3B R/B, 63362 is space debris in HEO originally from a launch on Wed, 26 Mar 2025 UTC launched from the Xichang Space Center, China (XSC). Debris objects in space refer to the collection of defunct objects orbiting the Earth. Examples of debris include non-operational satellites, rocket bodies, and fragments generated from explosions, collisions, or faulty payload assembly.

Loading next visibility...
Identifier
63362, 2025-062B
Orbit
HEO
Last TLE update
1 day ago
Origin
Manufacturer
CALT
Mission
Spacecraft
Bus & Motor
CZ-3A STAGE 3, Unknown motor
Mass
~2,800 kg wet, ~2,800 kg dry
Launch date (UTC)
2025-03-26 (3 months ago)
Launch vehicle
Unknown
Launch site
Xichang Space Center, China (XSC)
Object type
Payload
Rocket body
Debris
Shape & HBR
Cyl + 1 Nozzle, 12.38 m
Radar Cross Section
32.704 m², Large (>1 m²)

Expand to show TLE details & history

TLE from 1 day ago
0 CZ-3B R/B
1 63362U 25062B   25186.13423903  .00110432  10525-5  20949-2 0  9997
2 63362  27.3457  18.7864 7047667 248.5373  26.9022  2.63275625  2509
Epoch: 2025-07-05T03:13Z
TLE epoch observation values (Epoch: 2025-07-05T03:13:18.252Z)
Latitude
-0.00055°
Longitude
47.10279°
Altitude
8,626.851 km
Speed
5.927 km/s
True Right ascension
01h 15m 13s
True Declination
0° 00' 02"
Sunlit
Object was in daylight at epoch
Visualization orbit readout
Latitude
17.58917°
Longitude
84.31777°
Altitude
22,955.225 km
Speed
3.029 km/s
Apparent Right ascension
04h 16m 49s
Apparent Declination
8° 53' 58"
Sunlit
Object is in daylight
Visualization observer readout
Local Sidereal Time
19:54:15
Azimuth
58.706° ENE
Elevation
-20.016°
Doppler factor
1
Orbital elements
Apogee altitude
31,396.58 km
Perigee altitude
163.729 km
Semi-major axis
22,158.291 km
Eccentricity
0.70477
Inclination
27.3457°
RAAN
18.7864°
Arg. of periapsis
248.5373°
True anomaly
Unknown
Mean anomaly
26.9022°
Eccentric anomaly
Unknown
Mean motion
0.65802 °/min
Orbital period
547.1 mins
BSTAR
0.0020949
Loading maneuver chart data...
Loading SW <> Apogee altitude chart data...
Loading historical data...
Loading historical data...
Loading historical data...
Loading historical data...
Loading historical data...
Loading historical data...
Loading historical data...
Other satellites on launch #62 in the year 2025 (2025-03-26 UTC)

CZ-3B R/B Visibility forecast

Observer location: undefined°, undefined°

Span
Click to sort rows by Start time (UTC) header in descending order
Start Az.
Max El. time (UTC)
Max El. Az.
Max El.
End time (UTC)
End Az.
489 mins2025-07-06 15:36:30.117Z229.716° WSW2025-07-06 18:24:30.117Z235.148° WSW40.749°2025-07-06 23:45:30.117Z157.411° SSE
|